Time,TemperatureF,DewpointF,PressureIn,WindDirection,WindDirectionDegrees,WindSpeedMPH,WindSpeedGustMPH,Humidity,HourlyPrecipIn,Conditions,Clouds,dailyrainin,SoftwareType,DateUTC
2013-02-05 00:00:00,41.7,29.2,30.01,SSW,205,9.2,9.2,61,0.00,CLR,,0.00,WeatherDisplay:10.37,2013-02-05 05:00:00,
2013-02-05 00:05:00,41.7,29.2,30.01,SSW,205,9.2,9.2,61,0.00,CLR,,0.00,WeatherDisplay:10.37,2013-02-05 05:05:00,
2013-02-05 00:10:00,41.7,29.2,30.01,SSW,205,9.2,9.2,61,0.00,CLR,,0.00,WeatherDisplay:10.37,2013-02-05 05:10:00,
2013-02-05 00:15:00,42.1,29.6,29.99,SSW,194,6.0,6.0,61,0.00,CLR,,0.00,WeatherDisplay:10.37,2013-02-05 05:15:00,
2013-02-05 00:20:00,42.0,29.5,29.99,SSW,211,10.4,10.4,61,0.00,CLR,,0.00,WeatherDisplay:10.37,2013-02-05 05:20:00,
2013-02-05 00:25:00,41.7,29.2,30.01,SSW,205,9.2,9.2,61,0.00,CLR,,0.00,WeatherDisplay:10.37,2013-02-05 05:25:00,
2013-02-05 00:30:00,42.0,29.9,29.99,WSW,254,5.0,5.0,62,0.00,CLR,,0.00,WeatherDisplay:10.37,2013-02-05 05:30:00,
2013-02-05 00:35:00,41.7,29.2,30.01,SSW,205,9.2,9.2,61,0.00,CLR,,0.00,WeatherDisplay:10.37,2013-02-05 05:35:00,
2013-02-05 00:40:00,42.0,29.5,29.99,WSW,246,12.7,12.7,61,0.00,CLR,,0.00,WeatherDisplay:10.37,2013-02-05 05:40:00,
2013-02-05 00:45:00,42.0,29.9,29.98,SW,236,11.5,11.5,62,0.00,CLR,,0.00,WeatherDisplay:10.37,2013-02-05 05:45:00,
2013-02-05 00:50:00,41.7,29.2,30.01,SSW,205,9.2,9.2,61,0.00,CLR,,0.00,WeatherDisplay:10.37,2013-02-05 05:50:00,
2013-02-05 00:55:00,41.7,29.2,30.01,SSW,205,9.2,9.2,61,0.00,CLR,,0.00,WeatherDisplay:10.37,2013-02-05 05:55:00,
2013-02-05 01:00:00,42.0,29.9,29.98,SW,234,10.4,10.4,62,0.00,CLR,,0.00,WeatherDisplay:10.37,2013-02-05 06:00:00,
2013-02-05 01:05:00,41.7,29.2,30.01,SSW,205,9.2,9.2,61,0.00,CLR,,0.00,WeatherDisplay:10.37,2013-02-05 06:05:00,
2013-02-05 01:10:00,41.7,29.2,30.01,SSW,205,9.2,9.2,61,0.00,CLR,,0.00,WeatherDisplay:10.37,2013-02-05 06:10:00,
2013-02-05 01:15:00,41.8,29.7,29.98,SW,233,6.9,6.9,62,0.00,CLR,,0.00,WeatherDisplay:10.37,2013-02-05 06:15:00,
2013-02-05 01:20:00,41.7,29.2,30.01,SSW,205,9.2,9.2,61,0.00,CLR,,0.00,WeatherDisplay:10.37,2013-02-05 06:20:00,
2013-02-05 01:25:00,41.7,29.2,30.01,SSW,205,9.2,9.2,61,0.00,CLR,,0.00,WeatherDisplay:10.37,2013-02-05 06:25:00,
2013-02-05 01:30:00,41.7,29.2,30.01,SSW,205,9.2,9.2,61,0.00,CLR,,0.00,WeatherDisplay:10.37,2013-02-05 06:30:00,
2013-02-05 01:35:00,41.7,29.2,30.01,SSW,205,9.2,9.2,61,0.00,CLR,,0.00,WeatherDisplay:10.37,2013-02-05 06:35:00,
2013-02-05 01:40:00,41.8,30.1,29.97,WSW,258,5.8,5.8,63,0.00,CLR,,0.00,WeatherDisplay:10.37,2013-02-05 06:40:00,
2013-02-05 01:45:00,41.8,30.1,29.97,SW,229,3.5,5.8,63,0.00,CLR,,0.00,WeatherDisplay:10.37,2013-02-05 06:45:00,
2013-02-05 01:50:00,41.8,30.1,29.97,WSW,245,7.0,7.0,63,0.00,CLR,,0.00,WeatherDisplay:10.37,2013-02-05 06:50:00,
2013-02-05 01:55:00,41.8,30.1,29.97,SW,229,3.5,5.8,63,0.00,CLR,,0.00,WeatherDisplay:10.37,2013-02-05 06:55:00,
2013-02-05 02:00:00,41.8,30.1,29.97,SW,229,3.5,5.8,63,0.00,CLR,,0.00,WeatherDisplay:10.37,2013-02-05 07:00:00,
2013-02-05 02:05:00,41.8,30.1,29.97,SW,229,3.5,5.8,63,0.00,CLR,,0.00,WeatherDisplay:10.37,2013-02-05 07:05:00,
2013-02-05 02:10:00,41.6,30.3,29.96,WSW,240,4.6,4.6,64,0.00,CLR,,0.00,WeatherDisplay:10.37,2013-02-05 07:10:00,
2013-02-05 02:15:00,41.6,30.7,29.96,West,274,6.0,6.0,65,0.00,CLR,,0.00,WeatherDisplay:10.37,2013-02-05 07:15:00,
2013-02-05 02:20:00,41.5,30.2,29.96,WSW,240,3.5,3.5,64,0.00,CLR,,0.00,WeatherDisplay:10.37,2013-02-05 07:20:00,
2013-02-05 02:25:00,41.5,30.2,29.96,WSW,245,6.9,6.9,64,0.00,CLR,,0.00,WeatherDisplay:10.37,2013-02-05 07:25:00,
2013-02-05 02:30:00,41.3,30.4,29.96,WSW,250,3.5,3.5,65,0.00,CLR,,0.00,WeatherDisplay:10.37,2013-02-05 07:30:00,
2013-02-05 02:35:00,41.2,30.3,29.96,West,266,4.6,4.6,65,0.00,CLR,,0.00,WeatherDisplay:10.37,2013-02-05 07:35:00,
2013-02-05 02:40:00,41.5,30.2,29.96,WSW,245,6.9,6.9,64,0.00,CLR,,0.00,WeatherDisplay:10.37,2013-02-05 07:40:00,
2013-02-05 02:45:00,41.0,30.1,29.96,West,264,2.3,2.3,65,0.00,CLR,,0.00,WeatherDisplay:10.37,2013-02-05 07:45:00,
2013-02-05 02:50:00,41.0,30.1,29.96,West,264,2.3,2.3,65,0.00,CLR,,0.00,WeatherDisplay:10.37,2013-02-05 07:50:00,
2013-02-05 02:55:00,41.0,30.1,29.96,West,264,2.3,2.3,65,0.00,CLR,,0.00,WeatherDisplay:10.37,2013-02-05 07:55:00,
2013-02-05 03:00:00,40.3,29.8,29.96,West,259,2.3,2.3,66,0.00,CLR,,0.00,WeatherDisplay:10.37,2013-02-05 08:00:00,
2013-02-05 03:05:00,40.1,29.6,29.96,WSW,244,3.5,3.5,66,0.00,CLR,,0.00,WeatherDisplay:10.37,2013-02-05 08:05:00,
2013-02-05 03:10:00,39.9,29.5,29.96,WSW,244,2.3,2.3,66,0.00,CLR,,0.00,WeatherDisplay:10.37,2013-02-05 08:10:00,
2013-02-05 03:15:00,41.0,30.1,29.96,West,264,2.3,2.3,65,0.00,CLR,,0.00,WeatherDisplay:10.37,2013-02-05 08:15:00,
2013-02-05 03:20:00,39.5,29.4,29.95,WSW,244,0.0,0.0,67,0.00,CLR,,0.00,WeatherDisplay:10.37,2013-02-05 08:20:00,
2013-02-05 03:25:00,39.5,29.4,29.95,WSW,244,0.0,0.0,67,0.00,CLR,,0.00,WeatherDisplay:10.37,2013-02-05 08:25:00,
2013-02-05 03:30:00,39.2,29.2,29.96,WSW,244,0.0,0.0,67,0.00,CLR,,0.00,WeatherDisplay:10.37,2013-02-05 08:30:00,
2013-02-05 03:35:00,39.1,29.4,29.95,WSW,244,0.0,0.0,68,0.00,CLR,,0.00,WeatherDisplay:10.37,2013-02-05 08:35:00,
2013-02-05 03:40:00,38.9,29.6,29.95,WSW,244,0.0,0.0,69,0.00,CLR,,0.00,WeatherDisplay:10.37,2013-02-05 08:40:00,
2013-02-05 03:45:00,39.1,29.4,29.95,WSW,244,0.0,0.0,68,0.00,CLR,,0.00,WeatherDisplay:10.37,2013-02-05 08:45:00,
2013-02-05 03:50:00,38.6,29.7,29.94,WSW,244,0.0,0.0,70,0.00,CLR,,0.00,WeatherDisplay:10.37,2013-02-05 08:50:00,
2013-02-05 03:55:00,38.7,29.8,29.94,WSW,244,0.0,0.0,70,0.00,CLR,,0.00,WeatherDisplay:10.37,2013-02-05 08:55:00,
2013-02-05 04:00:00,38.7,29.8,29.94,WSW,244,0.0,0.0,70,0.00,CLR,,0.00,WeatherDisplay:10.37,2013-02-05 09:00:00,
2013-02-05 04:05:00,38.3,29.7,29.94,South,174,1.2,1.2,71,0.00,CLR,,0.00,WeatherDisplay:10.37,2013-02-05 09:05:00,
2013-02-05 04:10:00,38.7,29.8,29.94,WSW,244,0.0,0.0,70,0.00,CLR,,0.00,WeatherDisplay:10.37,2013-02-05 09:10:00,
2013-02-05 04:15:00,38.7,29.8,29.94,WSW,244,0.0,0.0,70,0.00,CLR,,0.00,WeatherDisplay:10.37,2013-02-05 09:15:00,
2013-02-05 04:20:00,38.1,29.5,29.94,South,173,2.3,2.3,71,0.00,CLR,,0.00,WeatherDisplay:10.37,2013-02-05 09:20:00,
2013-02-05 04:25:00,38.1,29.5,29.94,South,174,0.0,0.0,71,0.00,CLR,,0.00,WeatherDisplay:10.37,2013-02-05 09:25:00,
2013-02-05 04:30:00,38.1,29.5,29.94,South,174,0.0,0.0,71,0.00,CLR,,0.00,WeatherDisplay:10.37,2013-02-05 09:30:00,
2013-02-05 04:35:00,38.0,29.4,29.94,WSW,246,4.0,4.0,71,0.00,CLR,,0.00,WeatherDisplay:10.37,2013-02-05 09:35:00,
2013-02-05 04:40:00,38.1,29.5,29.94,South,174,0.0,0.0,71,0.00,CLR,,0.00,WeatherDisplay:10.37,2013-02-05 09:40:00,
2013-02-05 04:45:00,38.0,29.8,29.95,WSW,248,2.3,2.3,72,0.00,CLR,,0.00,WeatherDisplay:10.37,2013-02-05 09:45:00,
2013-02-05 04:50:00,38.1,29.9,29.95,WSW,248,2.3,2.3,72,0.00,CLR,,0.00,WeatherDisplay:10.37,2013-02-05 09:50:00,
2013-02-05 04:55:00,38.1,29.5,29.95,WSW,248,2.3,2.3,71,0.00,CLR,,0.00,WeatherDisplay:10.37,2013-02-05 09:55:00,
2013-02-05 05:00:00,37.9,29.7,29.94,WSW,248,1.2,2.1,72,0.00,CLR,,0.00,WeatherDisplay:10.37,2013-02-05 10:00:00,
2013-02-05 05:05:00,38.1,29.9,29.95,WSW,248,3.5,3.5,72,0.00,CLR,,0.00,WeatherDisplay:10.37,2013-02-05 10:05:00,
2013-02-05 05:10:00,37.9,29.7,29.94,WSW,248,1.2,2.1,72,0.00,CLR,,0.00,WeatherDisplay:10.37,2013-02-05 10:10:00,
2013-02-05 05:15:00,38.0,29.8,29.95,WSW,248,2.3,2.3,72,0.00,CLR,,0.00,WeatherDisplay:10.37,2013-02-05 10:15:00,
2013-02-05 05:20:00,37.9,29.7,29.94,WSW,248,0.0,0.0,72,0.00,CLR,,0.00,WeatherDisplay:10.37,2013-02-05 10:20:00,
2013-02-05 05:25:00,37.7,29.8,29.95,SSW,208,0.0,0.0,73,0.00,CLR,,0.00,WeatherDisplay:10.37,2013-02-05 10:25:00,
2013-02-05 05:30:00,37.8,30.3,29.95,SSW,200,6.0,6.0,74,0.00,CLR,,0.00,WeatherDisplay:10.37,2013-02-05 10:30:00,
2013-02-05 05:35:00,37.9,30.4,29.95,SW,218,3.5,3.5,74,0.00,CLR,,0.00,WeatherDisplay:10.37,2013-02-05 10:35:00,
2013-02-05 05:40:00,38.3,30.4,29.95,WSW,238,5.8,5.8,73,0.00,CLR,,0.00,WeatherDisplay:10.37,2013-02-05 10:40:00,
2013-02-05 05:45:00,37.9,30.4,29.95,SW,218,3.5,3.5,74,0.00,CLR,,0.00,WeatherDisplay:10.37,2013-02-05 10:45:00,
2013-02-05 05:50:00,38.9,30.6,29.96,SW,234,8.1,8.1,72,0.00,CLR,,0.00,WeatherDisplay:10.37,2013-02-05 10:50:00,
2013-02-05 05:55:00,37.9,30.4,29.95,SW,218,3.5,3.5,74,0.00,CLR,,0.00,WeatherDisplay:10.37,2013-02-05 10:55:00,
2013-02-05 06:00:00,37.9,30.4,29.95,SW,218,3.5,3.5,74,0.00,CLR,,0.00,WeatherDisplay:10.37,2013-02-05 11:00:00,
2013-02-05 06:05:00,39.5,30.5,29.95,WSW,239,6.9,6.9,70,0.00,CLR,,0.00,WeatherDisplay:10.37,2013-02-05 11:05:00,
2013-02-05 06:10:00,39.6,30.6,29.95,SW,221,4.6,4.6,70,0.00,CLR,,0.00,WeatherDisplay:10.37,2013-02-05 11:10:00,
2013-02-05 06:15:00,37.9,30.4,29.95,SW,218,3.5,3.5,74,0.00,CLR,,0.00,WeatherDisplay:10.37,2013-02-05 11:15:00,
2013-02-05 06:20:00,37.9,30.4,29.95,SW,218,3.5,3.5,74,0.00,CLR,,0.00,WeatherDisplay:10.37,2013-02-05 11:20:00,
2013-02-05 06:25:00,39.8,30.5,29.94,WSW,240,5.8,5.8,69,0.00,CLR,,0.00,WeatherDisplay:10.37,2013-02-05 11:25:00,
2013-02-05 06:30:00,39.7,30.4,29.94,SW,232,5.8,5.8,69,0.00,CLR,,0.00,WeatherDisplay:10.37,2013-02-05 11:30:00,
2013-02-05 06:35:00,37.9,30.4,29.95,SW,218,3.5,3.5,74,0.00,CLR,,0.00,WeatherDisplay:10.37,2013-02-05 11:35:00,
2013-02-05 06:40:00,39.5,30.5,29.95,WSW,257,4.6,4.6,70,0.00,CLR,,0.00,WeatherDisplay:10.37,2013-02-05 11:40:00,
2013-02-05 06:45:00,37.9,30.4,29.95,SW,218,3.5,3.5,74,0.00,CLR,,0.00,WeatherDisplay:10.37,2013-02-05 11:45:00,
2013-02-05 06:50:00,38.9,29.9,29.96,West,266,3.5,3.8,70,0.00,CLR,,0.00,WeatherDisplay:10.37,2013-02-05 11:50:00,
2013-02-05 06:55:00,38.4,29.8,29.95,West,266,0.0,0.0,71,0.00,CLR,,0.00,WeatherDisplay:10.37,2013-02-05 11:55:00,
2013-02-05 07:00:00,38.3,29.7,29.95,SE,144,0.0,0.0,71,0.00,CLR,,0.00,WeatherDisplay:10.37,2013-02-05 12:00:00,
2013-02-05 07:05:00,38.0,29.8,29.96,WSW,241,0.0,0.0,72,0.00,CLR,,0.00,WeatherDisplay:10.37,2013-02-05 12:05:00,
2013-02-05 07:10:00,37.8,29.6,29.97,WSW,241,0.0,0.0,72,0.00,CLR,,0.00,WeatherDisplay:10.37,2013-02-05 12:10:00,
2013-02-05 07:15:00,38.0,29.8,29.96,WSW,241,0.0,0.0,72,0.00,CLR,,0.00,WeatherDisplay:10.37,2013-02-05 12:15:00,
2013-02-05 07:20:00,37.4,29.5,29.97,WSW,241,0.0,0.0,73,0.00,CLR,,0.00,WeatherDisplay:10.37,2013-02-05 12:20:00,
2013-02-05 07:25:00,37.3,29.4,29.97,WSW,241,0.0,0.0,73,0.00,CLR,,0.00,WeatherDisplay:10.37,2013-02-05 12:25:00,
2013-02-05 07:30:00,38.0,29.8,29.96,WSW,241,0.0,0.0,72,0.00,CLR,,0.00,WeatherDisplay:10.37,2013-02-05 12:30:00,
2013-02-05 07:35:00,37.1,29.6,29.96,WSW,241,0.0,0.0,74,0.00,CLR,,0.00,WeatherDisplay:10.37,2013-02-05 12:35:00,
2013-02-05 07:40:00,37.1,29.6,29.96,WSW,241,0.0,0.0,74,0.00,CLR,,0.00,WeatherDisplay:10.37,2013-02-05 12:40:00,
2013-02-05 07:45:00,37.0,30.5,29.98,West,266,4.0,4.2,77,0.00,CLR,,0.00,WeatherDisplay:10.37,2013-02-05 12:45:00,
2013-02-05 07:50:00,37.1,29.6,29.96,WSW,241,0.0,0.0,74,0.00,CLR,,0.00,WeatherDisplay:10.37,2013-02-05 12:50:00,
2013-02-05 07:55:00,37.4,30.5,29.98,WSW,254,4.0,4.0,76,0.00,CLR,,0.00,WeatherDisplay:10.37,2013-02-05 12:55:00,
2013-02-05 08:00:00,37.1,29.6,29.96,WSW,241,0.0,0.0,74,0.00,CLR,,0.00,WeatherDisplay:10.37,2013-02-05 13:00:00,
2013-02-05 08:05:00,37.1,29.6,29.96,WSW,241,0.0,0.0,74,0.00,CLR,,0.00,WeatherDisplay:10.37,2013-02-05 13:05:00,
2013-02-05 08:10:00,38.0,30.8,29.97,SSE,159,0.0,0.0,75,0.00,CLR,,0.00,WeatherDisplay:10.37,2013-02-05 13:10:00,
2013-02-05 08:15:00,37.9,30.7,29.98,WSW,257,0.0,0.0,75,0.00,CLR,,0.00,WeatherDisplay:10.37,2013-02-05 13:15:00,
2013-02-05 08:20:00,37.9,30.7,29.98,WSW,257,0.0,0.0,75,0.00,CLR,,0.00,WeatherDisplay:10.37,2013-02-05 13:20:00,
2013-02-05 08:25:00,37.9,30.7,29.98,WSW,257,0.0,0.0,75,0.00,CLR,,0.00,WeatherDisplay:10.37,2013-02-05 13:25:00,
2013-02-05 08:30:00,37.9,30.7,29.98,WSW,257,0.0,0.0,75,0.00,CLR,,0.00,WeatherDisplay:10.37,2013-02-05 13:30:00,
2013-02-05 08:35:00,37.9,30.7,29.98,WSW,257,0.0,0.0,75,0.00,CLR,,0.00,WeatherDisplay:10.37,2013-02-05 13:35:00,
2013-02-05 08:40:00,37.9,30.7,29.98,WSW,257,0.0,0.0,75,0.00,CLR,,0.00,WeatherDisplay:10.37,2013-02-05 13:40:00,
2013-02-05 08:45:00,37.9,30.7,29.98,WSW,257,0.0,0.0,75,0.00,CLR,,0.00,WeatherDisplay:10.37,2013-02-05 13:45:00,
2013-02-05 08:50:00,39.4,31.5,29.99,WSW,249,3.5,3.5,73,0.00,CLR,,0.00,WeatherDisplay:10.37,2013-02-05 13:50:00,
2013-02-05 08:55:00,39.6,31.7,29.99,WSW,249,3.5,3.5,73,0.00,CLR,,0.00,WeatherDisplay:10.37,2013-02-05 13:55:00,
2013-02-05 09:00:00,37.9,30.7,29.98,WSW,257,0.0,0.0,75,0.00,CLR,,0.00,WeatherDisplay:10.37,2013-02-05 14:00:00,
2013-02-05 09:05:00,39.9,31.6,29.98,SW,225,0.0,1.4,72,0.00,CLR,,0.00,WeatherDisplay:10.37,2013-02-05 14:05:00,
2013-02-05 09:10:00,40.1,32.1,29.99,SW,235,4.6,4.6,73,0.00,CLR,,0.00,WeatherDisplay:10.37,2013-02-05 14:10:00,
2013-02-05 09:15:00,40.3,32.0,29.98,WSW,254,4.6,4.6,72,0.00,CLR,,0.00,WeatherDisplay:10.37,2013-02-05 14:15:00,
2013-02-05 09:20:00,40.5,31.8,29.99,WSW,245,5.8,5.8,71,0.00,CLR,,0.00,WeatherDisplay:10.37,2013-02-05 14:20:00,
2013-02-05 09:25:00,40.7,32.0,29.98,WSW,250,4.6,4.6,71,0.00,CLR,,0.00,WeatherDisplay:10.37,2013-02-05 14:25:00,
2013-02-05 09:30:00,40.9,31.9,29.98,WSW,244,5.0,5.0,70,0.00,CLR,,0.00,WeatherDisplay:10.37,2013-02-05 14:30:00,
2013-02-05 09:35:00,41.1,32.4,29.97,SW,233,3.5,3.5,71,0.00,CLR,,0.00,WeatherDisplay:10.37,2013-02-05 14:35:00,
2013-02-05 09:40:00,41.3,32.2,29.98,SW,215,6.9,6.9,70,0.00,CLR,,0.00,WeatherDisplay:10.37,2013-02-05 14:40:00,
2013-02-05 09:45:00,41.1,32.4,29.97,SW,233,0.0,2.0,71,0.00,CLR,,0.00,WeatherDisplay:10.37,2013-02-05 14:45:00,
2013-02-05 09:50:00,41.9,32.1,29.99,WSW,252,12.7,12.7,68,0.00,CLR,,0.00,WeatherDisplay:10.37,2013-02-05 14:50:00,
2013-02-05 09:55:00,42.1,32.3,29.99,WSW,242,4.6,4.6,68,0.00,CLR,,0.00,WeatherDisplay:10.37,2013-02-05 14:55:00,
2013-02-05 10:00:00,42.4,32.9,29.99,SW,219,6.9,6.9,69,0.00,CLR,,0.00,WeatherDisplay:10.37,2013-02-05 15:00:00,
2013-02-05 10:05:00,41.6,32.5,29.99,WSW,241,4.6,4.6,70,0.00,CLR,,0.00,WeatherDisplay:10.37,2013-02-05 15:05:00,
2013-02-05 10:10:00,43.1,32.5,29.98,SSW,196,4.6,4.6,66,0.00,CLR,,0.00,WeatherDisplay:10.37,2013-02-05 15:10:00,
2013-02-05 10:15:00,43.4,32.8,29.99,WSW,242,5.8,5.8,66,0.00,CLR,,0.00,WeatherDisplay:10.37,2013-02-05 15:15:00,
2013-02-05 10:20:00,41.6,32.5,29.99,WSW,241,4.6,4.6,70,0.00,CLR,,0.00,WeatherDisplay:10.37,2013-02-05 15:20:00,
2013-02-05 10:25:00,41.6,32.5,29.99,WSW,241,4.6,4.6,70,0.00,CLR,,0.00,WeatherDisplay:10.37,2013-02-05 15:25:00,
2013-02-05 10:30:00,41.6,32.5,29.99,WSW,241,4.6,4.6,70,0.00,CLR,,0.00,WeatherDisplay:10.37,2013-02-05 15:30:00,
2013-02-05 10:35:00,41.6,32.5,29.99,WSW,241,4.6,4.6,70,0.00,CLR,,0.00,WeatherDisplay:10.37,2013-02-05 15:35:00,
2013-02-05 10:40:00,41.6,32.5,29.99,WSW,241,4.6,4.6,70,0.00,CLR,,0.00,WeatherDisplay:10.37,2013-02-05 15:40:00,
2013-02-05 10:45:00,46.8,34.5,29.98,WSW,253,0.0,0.0,62,0.00,CLR,,0.00,WeatherDisplay:10.37,2013-02-05 15:45:00,
2013-02-05 10:50:00,47.5,33.9,29.98,West,260,5.8,5.8,59,0.00,CLR,,0.00,WeatherDisplay:10.37,2013-02-05 15:50:00,
2013-02-05 10:55:00,41.6,32.5,29.99,WSW,241,4.6,4.6,70,0.00,CLR,,0.00,WeatherDisplay:10.37,2013-02-05 15:55:00,
2013-02-05 11:00:00,48.5,33.9,29.98,West,280,4.6,4.6,57,0.00,CLR,,0.00,WeatherDisplay:10.37,2013-02-05 16:00:00,
2013-02-05 11:05:00,49.1,33.6,29.98,SW,231,5.8,5.8,55,0.00,CLR,,0.00,WeatherDisplay:10.37,2013-02-05 16:05:00,
2013-02-05 11:10:00,49.6,34.5,29.98,WSW,240,9.2,9.2,56,0.00,CLR,,0.00,WeatherDisplay:10.37,2013-02-05 16:10:00,
2013-02-05 11:15:00,50.1,33.6,29.98,WSW,238,9.2,9.2,53,0.00,CLR,,0.00,WeatherDisplay:10.37,2013-02-05 16:15:00,
2013-02-05 11:20:00,50.6,34.6,29.97,WSW,242,5.0,5.0,54,0.00,CLR,,0.00,WeatherDisplay:10.37,2013-02-05 16:20:00,
2013-02-05 11:25:00,51.0,34.0,29.97,WSW,242,6.9,6.9,52,0.00,CLR,,0.00,WeatherDisplay:10.37,2013-02-05 16:25:00,
2013-02-05 11:30:00,51.1,34.5,29.97,SW,232,3.5,5.6,53,0.00,CLR,,0.00,WeatherDisplay:10.37,2013-02-05 16:30:00,
2013-02-05 11:35:00,51.4,34.8,29.97,WSW,257,11.0,11.0,53,0.00,CLR,,0.00,WeatherDisplay:10.37,2013-02-05 16:35:00,
2013-02-05 11:40:00,51.5,34.9,29.97,West,269,11.5,11.5,53,0.00,CLR,,0.00,WeatherDisplay:10.37,2013-02-05 16:40:00,
2013-02-05 11:45:00,51.7,35.1,29.97,West,261,6.9,6.9,53,0.00,CLR,,0.00,WeatherDisplay:10.37,2013-02-05 16:45:00,
2013-02-05 11:50:00,51.1,34.5,29.97,SW,232,3.5,5.6,53,0.00,CLR,,0.00,WeatherDisplay:10.37,2013-02-05 16:50:00,
2013-02-05 11:55:00,51.1,34.5,29.97,SW,232,3.5,5.6,53,0.00,CLR,,0.00,WeatherDisplay:10.37,2013-02-05 16:55:00,
2013-02-05 12:00:00,52.7,35.6,29.97,West,261,9.2,9.2,52,0.00,CLR,,0.00,WeatherDisplay:10.37,2013-02-05 17:00:00,
2013-02-05 12:05:00,53.4,35.7,29.97,WNW,287,9.2,9.2,51,0.00,CLR,,0.00,WeatherDisplay:10.37,2013-02-05 17:05:00,
2013-02-05 12:10:00,51.1,34.5,29.97,SW,232,3.5,5.6,53,0.00,CLR,,0.00,WeatherDisplay:10.37,2013-02-05 17:10:00,
2013-02-05 12:15:00,54.2,36.5,29.97,WSW,257,6.0,6.0,51,0.00,CLR,,0.00,WeatherDisplay:10.37,2013-02-05 17:15:00,
2013-02-05 12:20:00,54.1,35.9,29.97,WSW,257,10.4,10.4,50,0.00,CLR,,0.00,WeatherDisplay:10.37,2013-02-05 17:20:00,
2013-02-05 12:25:00,54.5,35.7,29.96,NW,322,6.9,6.9,49,0.00,CLR,,0.00,WeatherDisplay:10.37,2013-02-05 17:25:00,
2013-02-05 12:30:00,54.9,36.1,29.96,WSW,250,12.0,12.0,49,0.00,CLR,,0.00,WeatherDisplay:10.37,2013-02-05 17:30:00,
2013-02-05 12:35:00,55.4,36.0,29.95,WSW,241,6.9,6.9,48,0.00,CLR,,0.00,WeatherDisplay:10.37,2013-02-05 17:35:00,
2013-02-05 12:40:00,54.5,35.7,29.96,NW,322,3.5,5.6,49,0.00,CLR,,0.00,WeatherDisplay:10.37,2013-02-05 17:40:00,
2013-02-05 12:45:00,56.5,36.5,29.95,WNW,303,4.6,4.6,47,0.00,CLR,,0.00,WeatherDisplay:10.37,2013-02-05 17:45:00,
2013-02-05 12:50:00,56.9,36.9,29.95,SW,233,5.8,5.8,47,0.00,CLR,,0.00,WeatherDisplay:10.37,2013-02-05 17:50:00,
2013-02-05 12:55:00,54.5,35.7,29.96,NW,322,3.5,5.6,49,0.00,CLR,,0.00,WeatherDisplay:10.37,2013-02-05 17:55:00,
2013-02-05 13:00:00,54.5,35.7,29.96,NW,322,3.5,5.6,49,0.00,CLR,,0.00,WeatherDisplay:10.37,2013-02-05 18:00:00,
2013-02-05 13:05:00,57.6,36.4,29.94,NNW,336,6.9,6.9,45,0.00,CLR,,0.00,WeatherDisplay:10.37,2013-02-05 18:05:00,
2013-02-05 13:10:00,57.6,35.8,29.94,ESE,105,5.8,5.8,44,0.00,CLR,,0.00,WeatherDisplay:10.37,2013-02-05 18:10:00,
2013-02-05 13:15:00,57.8,36.0,29.93,NNE,18,5.8,5.8,44,0.00,CLR,,0.00,WeatherDisplay:10.37,2013-02-05 18:15:00,
2013-02-05 13:20:00,57.7,35.9,29.94,ENE,68,1.2,2.7,44,0.00,CLR,,0.00,WeatherDisplay:10.37,2013-02-05 18:20:00,
2013-02-05 13:25:00,57.7,35.9,29.94,ENE,68,1.2,2.7,44,0.00,CLR,,0.00,WeatherDisplay:10.37,2013-02-05 18:25:00,
2013-02-05 13:30:00,57.7,35.9,29.94,ENE,68,1.2,2.7,44,0.00,CLR,,0.00,WeatherDisplay:10.37,2013-02-05 18:30:00,
2013-02-05 13:35:00,57.7,35.9,29.94,ENE,68,1.2,2.7,44,0.00,CLR,,0.00,WeatherDisplay:10.37,2013-02-05 18:35:00,
2013-02-05 13:40:00,57.7,35.9,29.94,ENE,68,1.2,2.7,44,0.00,CLR,,0.00,WeatherDisplay:10.37,2013-02-05 18:40:00,
2013-02-05 13:45:00,57.7,35.9,29.94,ENE,68,1.2,2.7,44,0.00,CLR,,0.00,WeatherDisplay:10.37,2013-02-05 18:45:00,
2013-02-05 13:50:00,57.7,35.9,29.94,ENE,68,1.2,2.7,44,0.00,CLR,,0.00,WeatherDisplay:10.37,2013-02-05 18:50:00,
2013-02-05 13:55:00,57.7,35.9,29.94,ENE,68,1.2,2.7,44,0.00,CLR,,0.00,WeatherDisplay:10.37,2013-02-05 18:55:00,
2013-02-05 14:00:00,57.7,35.9,29.94,ENE,68,1.2,2.7,44,0.00,CLR,,0.00,WeatherDisplay:10.37,2013-02-05 19:00:00,
2013-02-05 14:05:00,57.7,35.9,29.94,ENE,68,1.2,2.7,44,0.00,CLR,,0.00,WeatherDisplay:10.37,2013-02-05 19:05:00,
2013-02-05 14:10:00,57.7,35.9,29.94,ENE,68,1.2,2.7,44,0.00,CLR,,0.00,WeatherDisplay:10.37,2013-02-05 19:10:00,
2013-02-05 14:15:00,57.7,35.9,29.94,ENE,68,1.2,2.7,44,0.00,CLR,,0.00,WeatherDisplay:10.37,2013-02-05 19:15:00,
2013-02-05 14:20:00,60.5,37.9,29.91,WSW,238,3.5,3.5,43,0.00,CLR,,0.00,WeatherDisplay:10.37,2013-02-05 19:20:00,
2013-02-05 14:25:00,57.7,35.9,29.94,ENE,68,1.2,2.7,44,0.00,CLR,,0.00,WeatherDisplay:10.37,2013-02-05 19:25:00,
2013-02-05 14:30:00,60.8,38.1,29.91,WNW,282,2.3,2.3,43,0.00,CLR,,0.00,WeatherDisplay:10.37,2013-02-05 19:30:00,
2013-02-05 14:35:00,61.3,38.6,29.91,NNW,340,5.8,5.8,43,0.00,CLR,,0.00,WeatherDisplay:10.37,2013-02-05 19:35:00,
2013-02-05 14:40:00,60.8,38.1,29.91,WNW,282,2.3,2.3,43,0.00,CLR,,0.00,WeatherDisplay:10.37,2013-02-05 19:40:00,
2013-02-05 14:45:00,60.8,38.1,29.91,WNW,282,2.3,2.3,43,0.00,CLR,,0.00,WeatherDisplay:10.37,2013-02-05 19:45:00,
2013-02-05 14:50:00,61.8,39.1,29.90,WNW,298,8.0,8.0,43,0.00,CLR,,0.00,WeatherDisplay:10.37,2013-02-05 19:50:00,
2013-02-05 14:55:00,60.8,38.1,29.91,WNW,282,2.3,2.3,43,0.00,CLR,,0.00,WeatherDisplay:10.37,2013-02-05 19:55:00,
2013-02-05 15:00:00,61.9,39.7,29.91,NW,305,8.1,8.1,44,0.00,CLR,,0.00,WeatherDisplay:10.37,2013-02-05 20:00:00,
2013-02-05 15:05:00,61.9,38.5,29.91,West,268,4.6,5.7,42,0.00,CLR,,0.00,WeatherDisplay:10.37,2013-02-05 20:05:00,
2013-02-05 15:10:00,62.2,38.8,29.91,NNE,32,0.0,0.9,42,0.00,CLR,,0.00,WeatherDisplay:10.37,2013-02-05 20:10:00,
2013-02-05 15:15:00,62.2,38.8,29.91,NNE,32,0.0,0.9,42,0.00,CLR,,0.00,WeatherDisplay:10.37,2013-02-05 20:15:00,
2013-02-05 15:20:00,62.7,38.6,29.91,West,279,3.5,3.5,41,0.00,CLR,,0.00,WeatherDisplay:10.37,2013-02-05 20:20:00,
2013-02-05 15:25:00,62.7,38.6,29.91,West,279,0.0,2.6,41,0.00,CLR,,0.00,WeatherDisplay:10.37,2013-02-05 20:25:00,
2013-02-05 15:30:00,62.7,38.6,29.91,West,279,0.0,2.6,41,0.00,CLR,,0.00,WeatherDisplay:10.37,2013-02-05 20:30:00,
2013-02-05 15:35:00,62.7,38.6,29.91,West,279,0.0,2.6,41,0.00,CLR,,0.00,WeatherDisplay:10.37,2013-02-05 20:35:00,
2013-02-05 15:40:00,62.7,38.6,29.91,NE,55,6.9,6.9,41,0.00,CLR,,0.00,WeatherDisplay:10.37,2013-02-05 20:40:00,
2013-02-05 15:45:00,62.7,38.6,29.91,NW,323,4.6,4.6,41,0.00,CLR,,0.00,WeatherDisplay:10.37,2013-02-05 20:45:00,
2013-02-05 15:50:00,62.7,38.6,29.91,North,351,3.5,3.5,41,0.00,CLR,,0.00,WeatherDisplay:10.37,2013-02-05 20:50:00,
2013-02-05 15:55:00,62.7,38.6,29.91,North,351,3.5,3.5,41,0.00,CLR,,0.00,WeatherDisplay:10.37,2013-02-05 20:55:00,
2013-02-05 16:00:00,62.7,38.6,29.91,North,351,3.5,3.5,41,0.00,CLR,,0.00,WeatherDisplay:10.37,2013-02-05 21:00:00,
2013-02-05 16:05:00,62.3,38.3,29.91,WNW,294,3.5,0.0,41,0.00,CLR,,0.00,WeatherDisplay:10.37,2013-02-05 21:05:00,
2013-02-05 16:10:00,62.3,38.3,29.91,WNW,294,0.0,1.1,41,0.00,CLR,,0.00,WeatherDisplay:10.37,2013-02-05 21:10:00,
2013-02-05 16:15:00,62.3,38.3,29.91,NNE,22,2.3,2.3,41,0.00,CLR,,0.00,WeatherDisplay:10.37,2013-02-05 21:15:00,
2013-02-05 16:20:00,62.4,39.0,29.91,NNW,336,3.5,3.5,42,0.00,CLR,,0.00,WeatherDisplay:10.37,2013-02-05 21:20:00,
2013-02-05 16:25:00,62.4,39.0,29.90,NW,314,4.6,4.6,42,0.00,CLR,,0.00,WeatherDisplay:10.37,2013-02-05 21:25:00,
2013-02-05 16:30:00,62.4,39.0,29.91,NNW,336,3.5,3.5,42,0.00,CLR,,0.00,WeatherDisplay:10.37,2013-02-05 21:30:00,
2013-02-05 16:35:00,62.6,40.4,29.91,NW,310,2.3,2.3,44,0.00,CLR,,0.00,WeatherDisplay:10.37,2013-02-05 21:35:00,
2013-02-05 16:40:00,62.4,39.0,29.91,NNW,336,3.5,3.5,42,0.00,CLR,,0.00,WeatherDisplay:10.37,2013-02-05 21:40:00,
2013-02-05 16:45:00,62.4,39.0,29.90,WNW,293,3.5,3.5,42,0.00,CLR,,0.00,WeatherDisplay:10.37,2013-02-05 21:45:00,
2013-02-05 16:50:00,62.3,39.5,29.90,NW,310,3.5,3.5,43,0.00,CLR,,0.00,WeatherDisplay:10.37,2013-02-05 21:50:00,
2013-02-05 16:55:00,61.9,39.1,29.90,NW,309,3.5,3.5,43,0.00,CLR,,0.00,WeatherDisplay:10.37,2013-02-05 21:55:00,
2013-02-05 17:00:00,61.8,39.1,29.90,NW,314,4.6,4.6,43,0.00,CLR,,0.00,WeatherDisplay:10.37,2013-02-05 22:00:00,
2013-02-05 17:05:00,61.8,39.1,29.90,NW,314,4.6,4.6,43,0.00,CLR,,0.00,WeatherDisplay:10.37,2013-02-05 22:05:00,
2013-02-05 17:10:00,61.1,39.0,29.91,WNW,300,5.8,5.8,44,0.00,CLR,,0.00,WeatherDisplay:10.37,2013-02-05 22:10:00,
2013-02-05 17:15:00,60.9,38.8,29.91,WNW,302,3.5,3.5,44,0.00,CLR,,0.00,WeatherDisplay:10.37,2013-02-05 22:15:00,
2013-02-05 17:20:00,61.8,39.1,29.90,NW,314,4.6,4.6,43,0.00,CLR,,0.00,WeatherDisplay:10.37,2013-02-05 22:20:00,
2013-02-05 17:25:00,61.8,39.1,29.90,NW,314,4.6,4.6,43,0.00,CLR,,0.00,WeatherDisplay:10.37,2013-02-05 22:25:00,
2013-02-05 17:30:00,59.8,37.8,29.92,NW,320,1.2,0.0,44,0.00,CLR,,0.00,WeatherDisplay:10.37,2013-02-05 22:30:00,
2013-02-05 17:35:00,59.8,37.8,29.92,NW,320,0.0,0.0,44,0.00,CLR,,0.00,WeatherDisplay:10.37,2013-02-05 22:35:00,
2013-02-05 17:40:00,59.8,37.8,29.92,NW,320,0.0,0.0,44,0.00,CLR,,0.00,WeatherDisplay:10.37,2013-02-05 22:40:00,
2013-02-05 17:45:00,59.0,37.1,29.92,NNW,335,2.3,2.3,44,0.00,CLR,,0.00,WeatherDisplay:10.37,2013-02-05 22:45:00,
2013-02-05 17:50:00,59.0,37.1,29.92,NNW,335,2.3,2.3,44,0.00,CLR,,0.00,WeatherDisplay:10.37,2013-02-05 22:50:00,
2013-02-05 17:55:00,58.7,36.8,29.92,NNW,334,2.3,2.3,44,0.00,CLR,,0.00,WeatherDisplay:10.37,2013-02-05 22:55:00,
2013-02-05 18:00:00,58.8,36.9,29.92,NNW,334,0.0,0.0,44,0.00,CLR,,0.00,WeatherDisplay:10.37,2013-02-05 23:00:00,
2013-02-05 18:05:00,58.8,36.9,29.92,NNW,334,0.0,0.0,44,0.00,CLR,,0.00,WeatherDisplay:10.37,2013-02-05 23:05:00,
2013-02-05 18:10:00,57.7,35.3,29.92,NNW,335,0.0,0.0,43,0.00,CLR,,0.00,WeatherDisplay:10.37,2013-02-05 23:10:00,
2013-02-05 18:15:00,57.3,35.6,29.92,NNW,334,0.0,0.0,44,0.00,CLR,,0.00,WeatherDisplay:10.37,2013-02-05 23:15:00,
2013-02-05 18:20:00,57.0,35.3,29.92,NNW,335,0.0,0.0,44,0.00,CLR,,0.00,WeatherDisplay:10.37,2013-02-05 23:20:00,
2013-02-05 18:25:00,56.6,34.9,29.93,NNW,334,0.0,0.0,44,0.00,CLR,,0.00,WeatherDisplay:10.37,2013-02-05 23:25:00,
2013-02-05 18:30:00,56.4,35.3,29.93,NNW,334,0.0,0.0,45,0.00,CLR,,0.00,WeatherDisplay:10.37,2013-02-05 23:30:00,
2013-02-05 18:35:00,55.9,34.3,29.93,NNW,335,0.0,0.0,44,0.00,CLR,,0.00,WeatherDisplay:10.37,2013-02-05 23:35:00,
2013-02-05 18:40:00,55.3,33.7,29.93,NNW,335,0.0,0.0,44,0.00,CLR,,0.00,WeatherDisplay:10.37,2013-02-05 23:40:00,
2013-02-05 18:45:00,55.0,33.5,29.93,NNW,334,0.0,0.0,44,0.00,CLR,,0.00,WeatherDisplay:10.37,2013-02-05 23:45:00,
2013-02-05 18:50:00,54.6,33.1,29.94,NNW,334,0.0,0.0,44,0.00,CLR,,0.00,WeatherDisplay:10.37,2013-02-05 23:50:00,
2013-02-05 18:55:00,54.3,32.8,29.94,NNW,335,0.0,0.0,44,0.00,CLR,,0.00,WeatherDisplay:10.37,2013-02-05 23:55:00,
2013-02-05 19:00:00,54.0,32.6,29.94,NNW,334,0.0,0.0,44,0.00,CLR,,0.00,WeatherDisplay:10.37,2013-02-06 00:00:00,
2013-02-05 19:05:00,54.5,33.0,29.94,NNW,335,0.0,0.0,44,0.00,CLR,,0.00,WeatherDisplay:10.37,2013-02-06 00:05:00,
2013-02-05 19:10:00,54.5,33.0,29.94,NNW,335,0.0,0.0,44,0.00,CLR,,0.00,WeatherDisplay:10.37,2013-02-06 00:10:00,
2013-02-05 19:15:00,53.5,32.1,29.94,NNW,335,0.0,0.0,44,0.00,CLR,,0.00,WeatherDisplay:10.37,2013-02-06 00:15:00,
2013-02-05 19:20:00,54.5,33.0,29.94,NNW,335,0.0,0.0,44,0.00,CLR,,0.00,WeatherDisplay:10.37,2013-02-06 00:20:00,
2013-02-05 19:25:00,54.5,33.0,29.94,NNW,335,0.0,0.0,44,0.00,CLR,,0.00,WeatherDisplay:10.37,2013-02-06 00:25:00,
2013-02-05 19:30:00,53.2,31.8,29.94,NNW,335,0.0,0.0,44,0.00,CLR,,0.00,WeatherDisplay:10.37,2013-02-06 00:30:00,
2013-02-05 19:35:00,53.0,31.6,29.95,NNW,335,0.0,0.0,44,0.00,CLR,,0.00,WeatherDisplay:10.37,2013-02-06 00:35:00,
2013-02-05 19:40:00,52.9,32.1,29.95,NNW,335,0.0,0.0,45,0.00,CLR,,0.00,WeatherDisplay:10.37,2013-02-06 00:40:00,
2013-02-05 19:45:00,53.2,31.8,29.94,NNW,335,0.0,0.0,44,0.00,CLR,,0.00,WeatherDisplay:10.37,2013-02-06 00:45:00,
2013-02-05 19:50:00,53.2,31.8,29.94,NNW,335,0.0,0.0,44,0.00,CLR,,0.00,WeatherDisplay:10.37,2013-02-06 00:50:00,
2013-02-05 19:55:00,53.2,31.8,29.94,NNW,335,0.0,0.0,44,0.00,CLR,,0.00,WeatherDisplay:10.37,2013-02-06 00:55:00,
2013-02-05 20:00:00,51.8,32.7,29.96,NNW,334,0.0,0.0,48,0.00,CLR,,0.00,WeatherDisplay:10.37,2013-02-06 01:00:00,
2013-02-05 20:05:00,51.4,31.8,29.96,NNW,334,0.0,0.0,47,0.00,CLR,,0.00,WeatherDisplay:10.37,2013-02-06 01:05:00,
2013-02-05 20:10:00,51.1,31.6,29.96,NNW,335,0.0,0.0,47,0.00,CLR,,0.00,WeatherDisplay:10.37,2013-02-06 01:10:00,
2013-02-05 20:15:00,51.1,31.6,29.96,NNW,335,0.0,0.0,47,0.00,CLR,,0.00,WeatherDisplay:10.37,2013-02-06 01:15:00,
2013-02-05 20:20:00,50.5,31.5,29.96,NNW,335,0.0,0.0,48,0.00,CLR,,0.00,WeatherDisplay:10.37,2013-02-06 01:20:00,
2013-02-05 20:25:00,51.1,31.6,29.96,NNW,335,0.0,0.0,47,0.00,CLR,,0.00,WeatherDisplay:10.37,2013-02-06 01:25:00,
2013-02-05 20:30:00,51.1,31.6,29.96,NNW,335,0.0,0.0,47,0.00,CLR,,0.00,WeatherDisplay:10.37,2013-02-06 01:30:00,
2013-02-05 20:35:00,51.1,31.6,29.96,NNW,335,0.0,0.0,47,0.00,CLR,,0.00,WeatherDisplay:10.37,2013-02-06 01:35:00,
2013-02-05 20:40:00,48.8,31.9,29.97,NNW,335,2.3,2.3,52,0.00,CLR,,0.00,WeatherDisplay:10.37,2013-02-06 01:40:00,
2013-02-05 20:45:00,48.8,31.9,29.97,NNW,335,2.3,2.3,52,0.00,CLR,,0.00,WeatherDisplay:10.37,2013-02-06 01:45:00,
2013-02-05 20:50:00,48.8,31.9,29.97,NNW,335,2.3,2.3,52,0.00,CLR,,0.00,WeatherDisplay:10.37,2013-02-06 01:50:00,
2013-02-05 20:55:00,48.8,31.9,29.97,NNW,335,2.3,2.3,52,0.00,CLR,,0.00,WeatherDisplay:10.37,2013-02-06 01:55:00,
2013-02-05 21:00:00,47.8,31.5,29.97,NNW,335,0.0,0.0,53,0.00,CLR,,0.00,WeatherDisplay:10.37,2013-02-06 02:00:00,
2013-02-05 21:05:00,47.6,31.8,29.97,NNW,335,1.2,0.0,54,0.00,CLR,,0.00,WeatherDisplay:10.37,2013-02-06 02:05:00,
2013-02-05 21:10:00,48.8,31.9,29.97,NNW,335,2.3,2.3,52,0.00,CLR,,0.00,WeatherDisplay:10.37,2013-02-06 02:10:00,
2013-02-05 21:15:00,48.8,31.9,29.97,NNW,335,2.3,2.3,52,0.00,CLR,,0.00,WeatherDisplay:10.37,2013-02-06 02:15:00,
2013-02-05 21:20:00,47.1,31.7,29.97,NNW,335,0.0,0.0,55,0.00,CLR,,0.00,WeatherDisplay:10.37,2013-02-06 02:20:00,
2013-02-05 21:25:00,47.1,31.7,29.97,NNW,335,0.0,0.0,55,0.00,CLR,,0.00,WeatherDisplay:10.37,2013-02-06 02:25:00,
2013-02-05 21:30:00,47.1,31.7,29.97,NNW,335,0.0,0.0,55,0.00,CLR,,0.00,WeatherDisplay:10.37,2013-02-06 02:30:00,
2013-02-05 21:35:00,47.0,33.0,29.98,NNW,335,0.0,0.0,58,0.00,CLR,,0.00,WeatherDisplay:10.37,2013-02-06 02:35:00,
2013-02-05 21:40:00,46.8,33.2,29.98,NNW,334,0.0,0.0,59,0.00,CLR,,0.00,WeatherDisplay:10.37,2013-02-06 02:40:00,
2013-02-05 21:45:00,46.8,33.2,29.99,NNW,335,0.0,0.0,59,0.00,CLR,,0.00,WeatherDisplay:10.37,2013-02-06 02:45:00,
2013-02-05 21:50:00,46.5,32.5,29.99,NNW,335,0.0,0.0,58,0.00,CLR,,0.00,WeatherDisplay:10.37,2013-02-06 02:50:00,
2013-02-05 21:55:00,46.2,32.7,29.99,NNW,335,0.0,0.0,59,0.00,CLR,,0.00,WeatherDisplay:10.37,2013-02-06 02:55:00,
2013-02-05 22:00:00,46.1,33.0,29.98,NNW,335,0.0,0.0,60,0.00,CLR,,0.00,WeatherDisplay:10.37,2013-02-06 03:00:00,
2013-02-05 22:05:00,45.9,32.8,29.99,NNW,335,0.0,0.0,60,0.00,CLR,,0.00,WeatherDisplay:10.37,2013-02-06 03:05:00,
2013-02-05 22:10:00,45.9,33.2,29.99,NNW,335,0.0,0.0,61,0.00,CLR,,0.00,WeatherDisplay:10.37,2013-02-06 03:10:00,
2013-02-05 22:15:00,45.9,33.2,29.99,NNW,335,3.5,3.5,61,0.00,CLR,,0.00,WeatherDisplay:10.37,2013-02-06 03:15:00,
2013-02-05 22:20:00,45.9,33.2,29.99,NNW,335,3.5,3.5,61,0.00,CLR,,0.00,WeatherDisplay:10.37,2013-02-06 03:20:00,
2013-02-05 22:25:00,45.9,33.2,29.99,NNW,335,3.5,3.5,61,0.00,CLR,,0.00,WeatherDisplay:10.37,2013-02-06 03:25:00,
2013-02-05 22:30:00,45.9,33.2,29.99,NNW,335,3.5,3.5,61,0.00,CLR,,0.00,WeatherDisplay:10.37,2013-02-06 03:30:00,
2013-02-05 22:35:00,45.9,33.2,29.99,NNW,335,3.5,3.5,61,0.00,CLR,,0.00,WeatherDisplay:10.37,2013-02-06 03:35:00,
2013-02-05 22:40:00,47.3,33.7,29.98,NNW,335,0.0,0.0,59,0.00,CLR,,0.00,WeatherDisplay:10.37,2013-02-06 03:40:00,
2013-02-05 22:45:00,45.9,33.2,29.99,NNW,335,3.5,3.5,61,0.00,CLR,,0.00,WeatherDisplay:10.37,2013-02-06 03:45:00,
2013-02-05 22:50:00,47.5,33.9,29.98,NNW,334,0.0,0.0,59,0.00,CLR,,0.00,WeatherDisplay:10.37,2013-02-06 03:50:00,
2013-02-05 22:55:00,45.9,33.2,29.99,NNW,335,3.5,3.5,61,0.00,CLR,,0.00,WeatherDisplay:10.37,2013-02-06 03:55:00,
2013-02-05 23:00:00,47.4,33.8,29.98,NNW,334,3.5,3.5,59,0.00,CLR,,0.00,WeatherDisplay:10.37,2013-02-06 04:00:00,
2013-02-05 23:05:00,47.2,33.6,29.98,NNW,335,0.0,0.5,59,0.00,CLR,,0.00,WeatherDisplay:10.37,2013-02-06 04:05:00,
2013-02-05 23:10:00,47.4,33.8,29.98,NNW,335,0.0,0.0,59,0.00,CLR,,0.00,WeatherDisplay:10.37,2013-02-06 04:10:00,
2013-02-05 23:15:00,46.9,33.7,29.98,NNW,335,0.0,0.0,60,0.00,CLR,,0.00,WeatherDisplay:10.37,2013-02-06 04:15:00,
2013-02-05 23:20:00,46.7,33.5,29.98,NNW,334,0.0,0.0,60,0.00,CLR,,0.00,WeatherDisplay:10.37,2013-02-06 04:20:00,
2013-02-05 23:25:00,47.4,33.8,29.98,NNW,335,0.0,0.0,59,0.00,CLR,,0.00,WeatherDisplay:10.37,2013-02-06 04:25:00,
2013-02-05 23:30:00,47.4,33.8,29.98,NNW,335,0.0,0.0,59,0.00,CLR,,0.00,WeatherDisplay:10.37,2013-02-06 04:30:00,
2013-02-05 23:35:00,45.0,32.8,29.99,NNW,335,0.0,0.0,62,0.00,CLR,,0.00,WeatherDisplay:10.37,2013-02-06 04:35:00,
2013-02-05 23:40:00,44.5,32.7,29.99,NNW,335,0.0,0.0,63,0.00,CLR,,0.00,WeatherDisplay:10.37,2013-02-06 04:40:00,
2013-02-05 23:45:00,44.0,32.2,29.98,NNW,335,0.0,0.0,63,0.00,CLR,,0.00,WeatherDisplay:10.37,2013-02-06 04:45:00,
2013-02-05 23:50:00,43.6,32.6,29.99,NNW,334,0.0,0.0,65,0.00,CLR,,0.00,WeatherDisplay:10.37,2013-02-06 04:50:00,
2013-02-05 23:55:00,47.4,33.8,29.98,NNW,335,0.0,0.0,59,0.00,CLR,,0.00,WeatherDisplay:10.37,2013-02-06 04:55:00,